Quillayute, WA
on Friday, February 8, 2013

Friday
Previous Day Next Day
Daily Summary
 ActualAverageRecord
Temperature
Mean Temperature °F 42°F  
Max Temperature 49°F 49°F 61°F (1970)
Min Temperature 29°F 35°F 18°F (1989)
Degree Days
Heating Degree Days 26 23  
Month to date heating degree days 171 184  
Since 1 July heating degree days 3279 3389  
Cooling Degree Days 0 0  
Month to date cooling degree days 0 0  
Year to date cooling degree days 0 0  
Moisture
Dew Point 32°F   
Average Humidity 82    
Maximum Humidity 92    
Minimum Humidity 71    
Precipitation
Precipitation 0.00 in 0.38 in 1.96 in (1969)
Month to date precipitation 2.01 3.10  
Year to date precipitation 12.35 17.71  
Wind
Wind Speed 2 mph   
Max Wind Speed 8 mph   
Max Gust Speed 10 mph   
Visibility 4 miles   
Events Fog   

Key: T is trace of precipitation, MM is missing value
Source: NWS Daily Summary
Time(PST)TemperatureDew PointHumidity Pressure Visibility Wind DirectionWind SpeedGust SpeedPrecipitationEvents Conditions
12:02 AM 32.0°F 28.4°F 87% 30.21 in 0.5 miles Calm Calm - N/A Fog Fog
12:09 AM 30.2°F 28.4°F 93% 30.21 in 1.0 miles Calm Calm - N/A   Mist
12:11 AM 30.2°F 26.6°F 86% 30.21 in 1.5 miles Calm Calm - N/A   Partly Cloudy
12:17 AM 30.2°F 26.6°F 86% 30.21 in 3.0 miles Calm Calm - N/A   Clear
12:38 AM 30.2°F 26.6°F 86% 30.21 in 2.5 miles Calm Calm - N/A   Scattered Clouds
12:42 AM 32.0°F 28.4°F 87% 30.22 in 1.0 miles Calm Calm - N/A   Mist
12:47 AM 32.0°F 28.4°F 87% 30.22 in 0.2 miles NE 3.5 mph - N/A Fog Fog
12:53 AM 32.0°F 28.0°F 85% 30.22 in 0.2 miles Calm Calm - N/A Fog Fog
1:04 AM 32.0°F 28.4°F 87% 30.22 in 0.5 miles Calm Calm - N/A Fog Fog
1:12 AM 32.0°F 28.4°F 87% 30.22 in 0.5 miles East 3.5 mph - N/A Fog Fog
1:20 AM 32.0°F 28.4°F 87% 30.22 in 0.2 miles Calm Calm - N/A Fog Fog
1:53 AM 30.9°F 28.0°F 89% 30.24 in 0.2 miles Calm Calm - N/A Fog Light Freezing Fog
2:10 AM 30.2°F 26.6°F 86% 30.24 in 0.5 miles Calm Calm - N/A Fog Light Freezing Fog
2:22 AM 30.2°F 26.6°F 86% 30.24 in 1.8 miles Calm Calm - N/A   Mostly Cloudy
2:24 AM 30.2°F 26.6°F 86% 30.24 in 3.0 miles Calm Calm - N/A   Scattered Clouds
2:53 AM 30.0°F 26.1°F 85% 30.25 in 5.0 miles Calm Calm - N/A   Partly Cloudy
3:38 AM 30.2°F 26.6°F 86% 30.24 in 6.0 miles Calm Calm - N/A   Mostly Cloudy
3:53 AM 32.0°F 28.9°F 88% 30.24 in 6.0 miles East 6.9 mph - N/A   Overcast
4:26 AM 32.0°F 28.4°F 87% 30.25 in 6.0 miles NE 3.5 mph - N/A   Scattered Clouds
4:33 AM 32.0°F 28.4°F 87% 30.26 in 6.0 miles Calm Calm - N/A   Mostly Cloudy
4:53 AM 32.0°F 28.0°F 85% 30.27 in 6.0 miles Calm Calm - N/A   Mostly Cloudy
5:53 AM 33.1°F 28.9°F 85% 30.27 in 6.0 miles East 3.5 mph - N/A   Mostly Cloudy
6:04 AM 33.8°F 28.4°F 81% 30.26 in 6.0 miles Calm Calm - N/A   Partly Cloudy
6:34 AM 30.2°F 28.4°F 93% 30.27 in 2.0 miles Calm Calm - N/A   Clear
6:41 AM 30.2°F 26.6°F 86% 30.27 in 1.8 miles Calm Calm - N/A   Clear
6:49 AM 30.2°F 26.6°F 86% 30.27 in 1.2 miles Calm Calm - N/A   Clear
6:53 AM 30.0°F 27.0°F 88% 30.28 in 1.8 miles Calm Calm - N/A   Clear
6:55 AM 30.2°F 26.6°F 86% 30.27 in 3.0 miles Calm Calm - N/A   Clear
7:53 AM 30.9°F 27.0°F 85% 30.29 in 5.0 miles Calm Calm - N/A   Clear
8:53 AM 33.1°F 30.0°F 89% 30.31 in 5.0 miles Calm Calm - N/A   Partly Cloudy
9:09 AM 33.8°F 30.2°F 87% 30.30 in 5.0 miles Calm Calm - N/A   Mostly Cloudy
9:53 AM 36.0°F 32.0°F 86% 30.31 in 5.0 miles Calm Calm - N/A   Overcast
10:24 AM 37.4°F 33.8°F 87% 30.30 in 5.0 miles East 5.8 mph - N/A   Scattered Clouds
10:53 AM 39.9°F 35.1°F 83% 30.32 in 5.0 miles East 4.6 mph - N/A   Haze
11:53 AM 45.0°F 39.0°F 80% 30.31 in 5.0 miles ESE 3.5 mph - N/A   Haze
12:28 PM 46.4°F 37.4°F 71% 30.30 in 5.0 miles NNE 3.5 mph - N/A   Haze
12:53 PM 46.0°F 37.9°F 73% 30.30 in 5.0 miles NE 3.5 mph - N/A   Haze
1:29 PM 46.4°F 39.2°F 76% 30.29 in 5.0 miles NW 4.6 mph - N/A   Haze
1:53 PM 48.0°F 39.9°F 74% 30.30 in 5.0 miles NW 4.6 mph - N/A   Haze
2:08 PM 48.2°F 39.2°F 71% 30.29 in 5.0 miles Calm Calm - N/A   Haze
2:53 PM 48.0°F 39.0°F 71% 30.29 in 5.0 miles WNW 4.6 mph - N/A   Haze
3:53 PM 46.9°F 37.9°F 71% 30.29 in 5.0 miles NW 3.5 mph - N/A   Haze
4:53 PM 46.0°F 37.9°F 73% 30.29 in 5.0 miles NNW 3.5 mph - N/A   Haze
5:53 PM 42.1°F 37.0°F 82% 30.29 in 5.0 miles Calm Calm - N/A   Haze
6:23 PM 39.2°F 37.4°F 93% 30.28 in 2.0 miles Calm Calm - N/A   Mostly Cloudy
6:33 PM 41.0°F 37.4°F 87% 30.28 in 4.0 miles Calm Calm - N/A   Overcast
6:53 PM 41.0°F 37.0°F 86% 30.30 in 4.0 miles Calm Calm - N/A   Overcast
7:21 PM 41.0°F 37.4°F 87% 30.28 in 4.0 miles Calm Calm - N/A   Overcast
7:28 PM 41.0°F 37.4°F 87% 30.29 in 4.0 miles Calm Calm - N/A   Overcast
7:53 PM 41.0°F 37.9°F 89% 30.30 in 5.0 miles Calm Calm - N/A   Overcast
8:53 PM 41.0°F 36.0°F 82% 30.30 in 5.0 miles Calm Calm - N/A   Haze
9:22 PM 39.2°F 35.6°F 87% 30.29 in 2.0 miles Calm Calm - N/A   Mostly Cloudy
9:42 PM 37.4°F 33.8°F 87% 30.29 in 1.2 miles Calm Calm - N/A   Mostly Cloudy
9:49 PM 37.4°F 35.6°F 93% 30.28 in 1.5 miles Calm Calm - N/A   Mostly Cloudy
9:53 PM 37.9°F 34.0°F 86% 30.29 in 1.8 miles Calm Calm - N/A   Mostly Cloudy
10:08 PM 39.2°F 35.6°F 87% 30.29 in 3.0 miles Calm Calm - N/A   Overcast
10:53 PM 39.9°F 36.0°F 86% 30.29 in 4.0 miles Calm Calm - N/A   Overcast
11:53 PM 39.9°F 37.0°F 89% 30.29 in 4.0 miles Calm Calm - N/A   Overcast
Moon Phase
Feb. 08 Feb. 10 Feb. 17 Feb. 25 Mar. 04
Sunrise:07:35 AM (PST) Moon Rise:06:11 AM (PST)2/8
Sunset:05:30 PM (PST) Moon Set:04:08 PM (PST)2/8

Copyright © 2014 The Weather Underground, Inc.